Theta_e
316 317 318 318 317 317 317 317 317 317 317 317 318 318 318 318 318 319 315 315 318 319 322 325 326 326 325 321 322 326 321 321 319 315 309 304 303 301 301 302 301 301 300 299 298
316 317 318 318 317 317 317 317 317 317 317 317 317 317 317 317 318 317 315 315 318 319 322 326 325 326 322 319 319 319 317 316 310 309 305 303 303 302 302 300 300 300 300 299 298
317 317 318 318 318 317 317 317 316 316 316 316 315 315 316 319 318 316 315 315 319 321 323 324 325 323 318 317 315 312 313 310 307 307 305 302 302 302 301 300 300 300 299 298 297
317 317 317 318 318 318 317 316 315 316 316 314 315 314 316 317 320 315 314 317 319 321 323 324 323 321 313 313 313 311 309 309 307 305 304 303 302 301 301 301 300 300 299 297 297
317 317 318 317 317 318 316 315 316 316 315 315 314 314 316 316 315 315 314 317 317 320 322 322 323 317 313 312 311 307 306 306 306 305 303 303 301 301 300 300 300 299 298 297 297
315 317 317 317 317 318 317 315 315 316 315 315 314 314 316 315 315 314 314 316 316 317 319 321 322 318 313 309 309 307 305 303 304 303 302 300 300 301 300 300 299 299 297 297 297
315 316 317 317 317 318 318 316 315 316 316 315 314 313 315 315 314 314 314 315 316 317 319 320 319 317 312 307 306 306 304 303 303 303 302 302 301 300 300 299 298 297 297 297 297
315 315 317 318 317 317 318 316 315 315 316 315 314 313 315 314 314 314 314 313 315 316 316 316 316 314 311 308 307 305 305 307 304 303 302 304 305 300 300 299 297 296 296 297 297
316 315 315 318 318 318 318 317 314 315 315 313 314 314 314 314 314 313 314 314 314 315 315 315 315 310 309 307 308 307 310 309 306 303 302 302 304 301 300 299 297 296 296 297 297
315 316 316 316 318 318 318 316 314 314 315 315 314 313 313 314 314 313 313 314 314 314 314 314 313 304 302 307 307 310 309 309 309 304 302 302 301 300 299 299 297 296 296 296 296
316 316 315 315 318 318 318 315 319 316 315 315 315 314 314 314 314 313 313 313 314 314 312 311 310 310 306 306 307 308 308 309 308 305 303 301 302 300 299 298 296 296 295 296 296
316 316 316 316 317 318 317 318 318 317 315 315 314 314 314 313 313 313 313 313 314 313 311 309 311 308 307 307 306 308 308 306 306 305 304 304 303 300 297 298 298 297 295 296 296
316 316 316 316 317 317 317 317 317 316 314 314 314 314 313 313 313 313 313 313 311 310 309 311 310 308 308 306 306 305 306 304 304 304 304 303 302 299 298 298 297 296 296 295 296
316 316 316 316 317 318 318 318 316 315 309 312 313 314 313 313 312 312 313 314 311 308 307 307 307 307 308 307 304 306 304 305 306 303 303 303 306 299 297 297 294 295 295 295 296
315 316 316 315 317 319 318 318 314 318 313 313 313 313 313 313 312 312 312 314 311 310 309 309 308 307 308 307 304 305 304 306 306 305 305 304 303 302 297 297 294 294 295 295 296
315 316 316 315 316 318 318 316 316 312 313 314 312 312 313 312 312 312 312 312 310 308 305 306 306 304 304 304 304 303 305 305 304 303 307 306 305 303 297 297 295 294 295 295 296
317 315 316 315 316 317 318 317 311 313 314 314 312 312 312 312 311 311 311 310 309 311 311 308 307 305 304 305 304 303 303 306 307 306 308 304 302 303 298 296 295 294 296 295 296
319 315 316 316 315 318 317 315 315 313 315 314 313 312 313 311 311 311 310 310 308 310 308 311 311 306 302 303 304 304 303 305 310 307 304 302 303 304 297 297 297 296 296 295 296
323 316 316 315 315 316 316 313 313 316 316 314 314 314 314 313 312 311 309 308 307 306 310 311 312 303 302 301 302 304 304 301 301 303 305 304 303 299 296 295 295 295 295 295 295
322 316 315 315 314 315 312 312 313 315 315 314 315 313 313 313 313 310 309 309 309 307 307 309 310 304 303 303 301 303 301 305 302 307 309 304 302 303 297 295 293 292 294 295 295
320 315 315 315 315 316 312 311 314 316 316 315 314 314 313 313 311 310 310 309 308 306 306 306 307 306 305 304 303 301 301 300 300 301 304 304 306 298 298 296 294 294 295 295 295
315 312 315 315 313 309 312 313 316 316 315 314 314 315 313 311 311 311 311 310 307 306 306 306 304 307 307 302 301 302 303 301 305 304 297 298 304 299 296 297 298 297 296 295 295
314 313 314 314 311 309 311 314 316 315 314 314 314 314 314 312 315 312 310 306 307 306 306 304 305 306 307 305 303 303 301 300 299 299 300 303 306 295 295 296 297 297 296 295 295
313 311 313 313 312 310 313 314 315 315 315 314 314 314 314 314 312 312 309 305 305 306 308 305 304 306 307 307 305 304 302 301 301 298 300 302 303 300 295 294 295 296 296 295 295
313 311 312 309 310 311 310 313 314 315 313 313 313 313 313 313 313 313 307 304 304 307 304 303 305 305 306 307 306 307 304 300 300 301 305 305 303 304 299 294 297 298 296 295 295
314 312 313 311 313 309 310 312 315 315 312 312 312 312 311 311 312 313 307 305 306 303 302 300 305 306 308 305 305 306 304 301 300 300 300 301 303 300 299 299 297 297 296 295 295
316 313 312 310 310 310 310 311 313 314 313 312 311 311 311 311 312 311 309 307 306 302 301 302 303 303 307 306 305 307 303 303 299 298 301 303 303 295 295 295 298 298 297 296 295
Wind_Speed
5 4 2 2 2 3 2 2 0 0 1 3 3 5 5 4 3 1 6 8 8 4 1 2 2 1 2 6 5 2 4 3 4 6 5 12 4 5 5 8 5 5 7 7 1
5 3 2 0 1 2 1 1 1 3 2 3 4 6 6 3 4 2 8 8 5 2 2 3 1 4 3 5 5 6 4 2 2 5 6 7 6 10 5 8 6 9 8 4 2
6 4 1 1 1 2 1 2 1 3 3 2 4 6 3 1 3 2 7 6 4 1 4 2 3 2 4 5 7 4 3 2 6 12 18 8 7 6 13 1 6 10 8 3 4
7 4 2 1 2 2 3 2 4 2 4 3 5 5 1 1 1 5 6 5 5 1 4 2 3 2 5 4 5 6 6 5 8 11 10 7 12 7 3 5 10 7 5 1 5
6 6 3 2 3 3 4 3 4 4 4 4 4 1 2 1 1 5 7 3 5 2 5 4 4 6 5 6 5 6 3 8 11 11 12 12 7 5 11 11 8 3 6 1 6
6 5 5 4 4 4 4 5 4 5 4 5 3 2 2 1 2 4 7 4 2 2 4 6 4 10 11 6 5 5 14 13 7 8 10 8 5 1 9 8 5 7 4 2 5
7 6 5 5 5 5 5 6 5 5 5 5 4 2 1 1 1 1 4 6 7 5 8 11 12 3 8 6 10 13 5 4 4 6 2 11 1 3 13 8 10 9 5 1 4
8 7 6 6 6 6 6 6 6 5 6 4 3 2 1 2 0 1 3 6 7 9 10 10 5 12 6 17 5 4 4 2 3 7 6 2 4 5 12 10 10 8 5 2 3
8 7 7 7 7 7 7 6 5 4 5 3 2 2 2 3 1 3 4 3 5 7 11 7 5 9 6 5 3 3 2 1 1 12 5 3 3 6 13 10 11 9 6 2 2
8 7 7 7 7 7 7 4 4 5 5 5 6 2 4 2 2 2 6 5 2 4 2 2 5 4 3 3 2 3 2 3 4 6 4 5 7 3 14 13 12 9 6 2 2
8 8 7 6 6 6 5 3 2 2 6 4 2 2 3 4 3 0 5 5 3 2 2 3 5 1 4 4 2 1 1 3 2 4 5 7 5 8 16 12 11 9 7 4 2
8 8 7 6 5 4 3 2 3 0 3 7 6 5 5 6 2 2 3 3 3 2 2 5 1 2 2 1 1 3 2 3 0 3 5 2 6 4 12 9 13 11 9 5 3
8 8 7 5 3 2 2 1 3 3 0 3 6 4 4 7 3 4 3 4 3 3 1 4 1 3 2 2 2 1 2 1 3 3 1 4 3 1 2 3 7 9 8 5 4
8 8 6 3 3 4 4 2 2 1 4 4 3 3 5 4 2 1 3 3 3 4 4 3 0 1 1 0 2 2 1 1 1 3 2 2 5 2 3 5 7 10 10 6 4
8 7 6 2 3 5 3 1 2 1 2 2 3 4 5 4 2 2 1 2 5 4 3 1 1 1 1 1 2 1 0 1 1 2 3 1 2 3 1 6 8 13 11 7 4
8 8 5 4 6 6 2 2 4 4 6 3 3 3 3 2 2 1 0 3 5 4 4 2 1 2 1 1 2 3 3 5 4 2 2 1 3 4 5 6 4 10 11 8 6
8 8 6 5 4 7 3 6 4 3 2 4 4 3 2 3 1 1 1 1 3 3 2 1 0 1 2 1 1 3 4 3 3 4 4 2 2 8 5 5 7 16 12 10 7
8 8 8 6 8 6 6 4 3 4 5 1 3 3 4 5 1 3 2 2 3 3 3 3 3 1 2 1 1 1 3 4 3 2 5 2 5 4 3 7 7 9 10 10 7
10 8 7 6 9 10 6 2 7 5 2 6 2 3 3 2 3 2 5 4 5 7 5 4 2 0 3 2 1 1 2 2 5 2 2 3 6 1 2 4 8 10 13 11 7
9 7 6 6 9 11 3 5 4 5 2 2 5 3 6 4 4 4 5 2 3 2 1 4 2 1 0 2 4 1 4 2 3 0 4 5 6 5 6 10 7 11 17 13 9
6 4 5 11 9 7 3 7 5 5 4 4 3 5 5 6 7 5 5 1 3 2 1 3 3 1 2 3 5 1 1 5 4 3 4 2 7 6 8 9 12 20 18 15 12
4 1 7 13 4 1 3 5 4 4 3 3 3 2 7 6 5 4 6 3 4 6 4 2 4 3 5 1 1 1 2 4 4 3 1 4 6 0 5 9 18 17 16 14 12
3 4 7 15 3 2 4 4 3 2 3 4 3 3 1 5 3 4 3 0 3 3 5 5 0 2 1 1 2 3 4 4 5 3 6 5 6 1 0 5 14 16 16 15 15
3 1 3 10 3 5 4 4 4 4 3 4 3 4 3 2 3 4 4 1 1 3 3 1 2 6 6 5 5 4 5 5 5 3 4 7 8 5 7 9 15 17 17 17 17
5 4 3 3 4 5 5 2 5 5 6 7 1 5 6 5 1 4 2 1 0 3 3 4 4 4 5 6 4 6 5 9 9 6 7 3 8 5 8 13 27 24 20 21 20
5 3 2 2 1 7 2 3 5 3 6 4 5 7 7 7 9 6 6 5 5 1 4 1 2 2 4 1 6 6 9 11 10 4 10 6 18 7 8 11 17 24 26 26 24
14 6 1 2 1 5 5 7 7 5 4 3 7 5 5 8 5 3 7 3 10 9 7 5 5 3 5 4 5 8 9 15 7 6 8 8 11 6 4 10 20 25 30 30 27
Wind_Direction
22 21 29 96 124 120 111 105 31 303 278 272 288 308 315 307 281 269 347 343 343 338 153 148 110 353 40 34 38 69 67 137 170 151 156 147 114 78 96 133 98 105 121 125 103
22 28 25 113 171 143 130 354 30 301 293 285 295 307 315 304 187 268 340 341 348 321 183 164 12 185 68 30 26 62 85 152 319 142 146 125 124 136 123 113 102 120 126 123 331
11 11 54 235 217 233 230 314 314 291 283 284 309 312 315 209 213 300 341 341 7 312 184 162 151 101 74 44 20 44 107 118 22 123 132 113 106 135 140 137 172 169 155 165 334
355 356 342 212 238 253 284 294 299 283 277 286 317 308 251 191 234 344 349 348 358 233 190 163 166 106 67 53 42 91 47 109 124 114 108 117 133 135 187 122 131 139 156 178 354
353 340 328 284 237 253 284 289 295 284 271 297 330 323 221 256 298 339 354 305 338 274 225 215 187 129 99 101 74 84 120 83 123 120 111 134 134 144 134 134 144 156 165 60 10
352 333 320 294 267 258 281 287 294 274 258 291 314 333 217 240 290 359 15 358 10 28 230 211 194 137 99 65 61 105 111 116 114 117 129 122 137 143 171 162 185 167 159 82 14
343 331 311 296 274 266 283 285 289 270 259 276 299 273 245 196 271 42 37 52 55 57 104 110 132 132 105 100 111 115 85 87 133 146 136 132 148 210 163 170 150 158 155 108 6
337 329 312 295 283 274 278 280 287 268 255 273 283 264 223 196 132 179 102 65 71 73 86 96 121 104 86 116 81 74 77 108 200 168 174 57 265 190 169 180 164 163 166 135 6
331 328 317 299 286 279 279 278 282 256 235 251 253 264 249 191 225 239 207 151 92 86 85 93 115 93 113 90 46 20 245 202 234 200 152 170 261 208 188 187 174 178 170 157 12
322 325 316 299 289 287 287 274 256 243 243 255 252 292 227 205 186 181 206 200 178 152 123 43 75 79 48 77 247 214 232 224 234 211 171 178 256 224 193 195 190 185 179 181 339
314 319 316 301 287 296 290 281 209 179 222 224 269 232 181 189 197 356 184 186 170 154 100 41 67 236 202 191 221 146 215 261 206 175 151 206 250 221 202 202 183 191 190 197 285
307 309 313 300 281 289 296 20 72 8 307 245 238 227 204 206 238 197 168 172 151 128 103 27 208 185 175 83 253 217 245 269 306 136 172 196 251 276 189 210 204 204 194 207 252
304 305 307 295 264 240 208 208 324 314 301 261 220 210 203 213 237 219 211 158 114 99 356 156 168 137 144 48 45 62 213 214 242 19 226 330 295 333 195 174 184 194 195 217 262
299 302 305 287 189 177 177 217 296 301 62 265 210 193 179 185 242 217 159 158 55 153 140 108 89 128 137 203 123 290 189 114 150 65 274 48 286 270 227 204 191 191 204 218 254
299 298 300 235 184 175 166 229 160 285 339 170 161 161 162 154 145 42 129 124 143 138 117 230 102 68 162 205 146 211 200 95 83 118 46 307 72 262 143 245 225 214 215 223 247
296 292 285 270 215 187 185 164 130 44 260 166 138 165 115 130 112 127 126 91 112 97 45 112 88 80 119 95 112 128 91 47 51 87 7 225 129 257 196 212 193 206 211 219 230
292 284 275 252 228 201 186 153 60 162 358 200 183 161 148 167 133 110 71 68 159 115 230 33 150 63 73 106 71 84 66 340 349 3 231 145 76 249 223 214 203 189 196 208 217
292 282 263 244 212 200 174 62 150 229 213 116 126 99 176 160 202 136 93 281 247 102 117 148 314 129 22 83 219 88 135 144 280 293 285 314 243 261 212 170 160 175 183 199 210
289 283 264 224 205 191 179 109 201 204 180 154 101 129 217 201 152 135 186 221 219 180 159 140 259 56 65 69 87 120 37 177 103 11 5 257 288 287 138 201 193 186 189 205 212
284 282 233 201 182 182 100 224 226 205 99 123 200 158 180 206 164 169 183 199 196 237 215 189 87 349 55 106 42 55 161 56 21 94 291 291 283 247 232 228 216 205 205 211 212
273 257 198 184 171 170 181 224 236 219 146 173 229 188 200 183 174 196 211 190 144 174 243 136 108 311 28 195 180 63 33 55 114 118 170 306 274 209 209 199 203 214 211 209 208
250 243 182 174 144 118 173 214 220 200 173 168 164 223 187 165 169 217 209 199 151 156 185 200 136 188 215 134 118 189 200 146 117 235 80 144 274 181 226 219 204 204 204 206 204
238 248 186 185 163 234 261 267 257 179 215 174 180 142 358 192 173 191 177 162 154 138 160 201 261 16 308 19 11 219 195 116 108 92 200 140 262 47 246 194 200 197 195 198 199
228 259 198 196 203 158 189 245 232 221 233 190 173 125 112 266 355 183 171 128 231 138 125 93 159 180 196 201 132 192 189 172 138 126 184 228 284 238 224 216 206 208 200 200 202
205 249 202 218 234 188 159 262 196 217 217 190 222 197 160 189 286 220 121 127 135 160 114 121 235 191 252 229 191 214 186 179 194 187 185 247 220 237 212 210 216 214 202 199 202
185 215 226 261 177 153 167 244 208 210 162 231 182 211 174 170 190 232 153 197 195 109 164 68 240 207 284 351 206 255 223 199 214 223 266 281 281 215 245 216 211 209 203 204 207
204 200 204 288 215 121 207 204 218 205 231 220 209 139 178 228 189 247 192 174 159 150 173 150 143 110 266 340 320 290 223 190 188 205 175 200 231 164 196 206 213 207 207 209 210